{"data":{"norad_id":69275,"epoch":"2026-09-19T11:35:52.636704Z","epoch_age_seconds":117984,"freshness":"FRESH","line1":"1 69275U 26118J   26262.48324811  .00002070  00000+0  30047-3 0  9991","line2":"2 69275  51.9025 338.6893 0000619  95.8249 264.2784 14.79932937 18192","mean_motion":14.79932937,"eccentricity":6.19e-5,"inclination_deg":51.9025,"raan_deg":338.6893,"arg_perigee_deg":95.8249,"mean_anomaly_deg":264.2784,"bstar":0.00030047,"rev_number":1819,"period_min":97.301706313737,"perigee_km":629.10205310233,"apogee_km":629.96960299844,"semimajor_km":7007.6728280504,"source":"CELESTRAK","updated_at":"2026-09-20T09:00:24.778154Z"}}